ANA2520 VHHX-RJTT

Flight info

Callsign ANA2520
Flight time 1h 40m
Altitude 37100
Route BEKOL DCT LMN DCT LJG DCT WNZ DCT HSN/N0476F370 DCT JDG/N0478F390 DCT HGE ITE HME
Aircraft B77W/H-SDE1E2E3FGHIJ2J3J4J5M1RWXY/LB1D1

Departure

Time 2026-05-05 06:29
Airport Hong Kong International Airport Kai Tak (VHHX)

Arrival

Time 2026-05-05 08:10
Airport Tokyo Haneda International Airport (RJTT)
Time Latitude Longitude Altitude Speed Heading
2026-05-05 05:50 22.32746 114.19455 38 ft 0 kts 314°
2026-05-05 05:53 22.32714 114.19392 39 ft 0 kts 314°
2026-05-05 05:53 22.32711 114.19396 39 ft 0 kts 314°
2026-05-05 05:53 22.32708 114.19399 39 ft 0 kts 314°
2026-05-05 06:19 22.32707 114.19400 40 ft 2 kts 314°
2026-05-05 06:19 22.32694 114.19416 40 ft 3 kts 302°
2026-05-05 06:20 22.32685 114.19435 39 ft 3 kts 286°
2026-05-05 06:20 22.32681 114.19456 36 ft 3 kts 269°
2026-05-05 06:20 22.32683 114.19478 37 ft 3 kts 253°
2026-05-05 06:20 22.32691 114.19498 39 ft 3 kts 239°
2026-05-05 06:21 22.32702 114.19515 36 ft 3 kts 227°
2026-05-05 06:21 22.32708 114.19521 36 ft 0 kts 224°
2026-05-05 06:24 22.32702 114.19515 41 ft 4 kts 224°
2026-05-05 06:25 22.32671 114.19483 40 ft 8 kts 224°
2026-05-05 06:25 22.32641 114.19452 40 ft 6 kts 224°
2026-05-05 06:25 22.32627 114.19438 40 ft 0 kts 224°
2026-05-05 06:25 22.32623 114.19434 40 ft 1 kts 224°
2026-05-05 06:26 22.32615 114.19425 40 ft 2 kts 224°
2026-05-05 06:26 22.32597 114.19406 40 ft 5 kts 224°
2026-05-05 06:26 22.32561 114.19369 40 ft 8 kts 224°
2026-05-05 06:26 22.32545 114.19352 40 ft 0 kts 224°
2026-05-05 06:27 22.32514 114.19321 42 ft 8 kts 221°
2026-05-05 06:27 22.32466 114.19327 41 ft 8 kts 134°
2026-05-05 06:28 22.32459 114.19336 41 ft 0 kts 134°
2026-05-05 06:28 22.32425 114.19373 41 ft 22 kts 134°
2026-05-05 06:28 22.32157 114.19675 40 ft 97 kts 134°
2026-05-05 06:29 22.31502 114.20406 40 ft 170 kts 133°
2026-05-05 06:29 22.30608 114.21371 536 ft 189 kts 134°
2026-05-05 06:29 22.29692 114.22334 1497 ft 179 kts 133°
2026-05-05 06:29 22.28794 114.23253 2377 ft 180 kts 134°
2026-05-05 06:30 22.27868 114.24239 2989 ft 199 kts 134°
2026-05-05 06:30 22.26821 114.25408 3265 ft 236 kts 134°
2026-05-05 06:30 22.25613 114.26777 3767 ft 261 kts 134°
2026-05-05 06:30 22.24354 114.28219 4802 ft 267 kts 136°
2026-05-05 06:31 22.23058 114.29685 5883 ft 274 kts 136°
2026-05-05 06:31 22.21725 114.31196 6608 ft 280 kts 136°
2026-05-05 06:31 22.20376 114.32728 6976 ft 283 kts 136°
2026-05-05 06:31 22.19006 114.34284 6984 ft 288 kts 136°
2026-05-05 06:32 22.17629 114.35849 6993 ft 286 kts 136°
2026-05-05 06:32 22.16268 114.37395 6981 ft 283 kts 136°
2026-05-05 06:32 22.14924 114.38931 6983 ft 280 kts 136°
2026-05-05 06:32 22.13502 114.40330 6984 ft 276 kts 139°
2026-05-05 06:33 22.12477 114.42126 6980 ft 293 kts 106°
2026-05-05 06:33 22.12482 114.44346 6980 ft 304 kts 74°
2026-05-05 06:33 22.13485 114.46343 7007 ft 304 kts 52°
2026-05-05 06:33 22.14793 114.48094 6968 ft 296 kts 59°
2026-05-05 06:34 22.15759 114.50001 7013 ft 295 kts 58°
2026-05-05 06:34 22.17151 114.51659 7013 ft 303 kts 36°
2026-05-05 06:34 22.18984 114.52777 7014 ft 301 kts 20°
2026-05-05 06:34 22.20977 114.53463 7023 ft 302 kts 11°
2026-05-05 06:35 22.23044 114.53866 7026 ft 302 kts
2026-05-05 06:35 22.25140 114.53883 6980 ft 302 kts 351°
2026-05-05 06:35 22.27182 114.53443 6972 ft 296 kts 339°
2026-05-05 06:35 22.29035 114.52588 6945 ft 282 kts 327°
2026-05-05 06:36 22.30616 114.51431 6970 ft 269 kts 316°
2026-05-05 06:36 22.31974 114.50017 7020 ft 275 kts 307°
2026-05-05 06:36 22.33118 114.48345 7018 ft 279 kts 297°
2026-05-05 06:36 22.34099 114.46545 7298 ft 277 kts 299°
2026-05-05 06:37 22.35161 114.44794 8324 ft 279 kts 300°
2026-05-05 06:37 22.36240 114.43049 9495 ft 279 kts 300°
2026-05-05 06:37 22.37318 114.41297 10518 ft 283 kts 300°
2026-05-05 06:37 22.38424 114.39486 11030 ft 306 kts 300°
2026-05-05 06:38 22.39656 114.37459 11262 ft 337 kts 301°
2026-05-05 06:38 22.40991 114.35260 11664 ft 359 kts 300°
2026-05-05 06:38 22.42376 114.32990 12500 ft 366 kts 300°
2026-05-05 06:38 22.43790 114.30668 13405 ft 372 kts 300°
2026-05-05 06:39 22.45223 114.28303 14282 ft 377 kts 300°
2026-05-05 06:39 22.46661 114.25929 15205 ft 379 kts 300°
2026-05-05 06:39 22.48108 114.23540 16147 ft 381 kts 300°
2026-05-05 06:39 22.49568 114.21130 17035 ft 385 kts 300°
2026-05-05 06:40 22.51046 114.18687 17896 ft 389 kts 300°
2026-05-05 06:40 22.52762 114.16461 18527 ft 400 kts 315°
2026-05-05 06:40 22.55227 114.14879 19218 ft 417 kts 334°
2026-05-05 06:40 22.58042 114.14125 20031 ft 428 kts 348°
2026-05-05 06:41 22.61049 114.14257 20823 ft 437 kts
2026-05-05 06:41 22.64080 114.14794 21429 ft 446 kts
2026-05-05 06:41 22.67164 114.15382 22064 ft 451 kts
2026-05-05 06:41 22.70263 114.15980 22793 ft 454 kts
2026-05-05 06:42 22.73385 114.16571 23538 ft 456 kts
2026-05-05 06:42 22.76523 114.17149 24108 ft 459 kts
2026-05-05 06:42 22.79688 114.17718 24655 ft 462 kts
2026-05-05 06:42 22.82872 114.18281 25193 ft 466 kts
2026-05-05 06:43 22.86087 114.18844 25727 ft 469 kts
2026-05-05 06:43 22.89315 114.19407 26270 ft 473 kts
2026-05-05 06:43 22.92578 114.19976 26782 ft 476 kts
2026-05-05 06:43 22.95824 114.20543 27327 ft 480 kts
2026-05-05 06:44 22.99136 114.21123 27854 ft 484 kts
2026-05-05 06:44 23.02473 114.21708 28353 ft 487 kts
2026-05-05 06:44 23.05841 114.22298 28856 ft 490 kts
2026-05-05 06:44 23.09216 114.22891 29312 ft 494 kts
2026-05-05 06:45 23.12617 114.23488 29763 ft 497 kts
2026-05-05 06:45 23.16047 114.24091 30169 ft 500 kts
2026-05-05 06:45 23.19502 114.24699 30516 ft 503 kts
2026-05-05 06:45 23.22959 114.25309 30928 ft 503 kts
2026-05-05 06:46 23.26417 114.25920 31431 ft 502 kts
2026-05-05 06:46 23.29856 114.26529 31942 ft 500 kts
2026-05-05 06:46 23.33244 114.27127 32426 ft 499 kts
2026-05-05 06:46 23.36668 114.27731 32924 ft 498 kts
2026-05-05 06:47 23.40087 114.28334 33432 ft 497 kts
2026-05-05 06:47 23.43491 114.28934 33996 ft 495 kts
2026-05-05 06:47 23.46887 114.29534 34459 ft 493 kts
2026-05-05 06:47 23.50257 114.30130 34916 ft 490 kts
2026-05-05 06:48 23.53610 114.30723 35338 ft 487 kts
2026-05-05 06:48 23.56956 114.31313 35722 ft 487 kts
2026-05-05 06:48 23.60293 114.31946 36094 ft 489 kts
2026-05-05 06:48 23.63512 114.33320 36344 ft 511 kts 24°
2026-05-05 06:49 23.66335 114.35775 36662 ft 528 kts 42°
2026-05-05 06:49 23.68456 114.39073 37016 ft 535 kts 56°
2026-05-05 06:49 23.70269 114.42666 37005 ft 543 kts 57°
2026-05-05 06:50 23.74084 114.50394 37012 ft 542 kts 57°
2026-05-05 06:50 23.88197 114.77874 36993 ft 531 kts 56°
2026-05-05 06:51 24.02789 115.06246 37029 ft 547 kts 56°
2026-05-05 06:51 24.17621 115.35286 37092 ft 539 kts 56°
2026-05-05 06:52 24.32129 115.63842 37008 ft 537 kts 57°
2026-05-05 06:52 24.46587 115.92470 36970 ft 556 kts 57°
2026-05-05 06:53 24.61379 116.21960 36917 ft 541 kts 57°
2026-05-05 06:53 24.75779 116.50819 37105 ft 551 kts 58°
2026-05-05 06:54 24.90664 116.80864 37099 ft 556 kts 58°
2026-05-05 06:54 24.97963 116.95665 37066 ft 545 kts 58°
2026-05-05 06:54 25.05176 117.10330 37085 ft 545 kts 58°
2026-05-05 06:54 25.12469 117.25201 37196 ft 556 kts 58°
2026-05-05 06:55 25.19883 117.40384 37013 ft 565 kts 59°
2026-05-05 06:55 25.27292 117.55609 36910 ft 555 kts 59°
2026-05-05 06:55 25.34498 117.70462 37006 ft 545 kts 59°
2026-05-05 06:55 25.41676 117.85291 37153 ft 549 kts 59°
2026-05-05 06:56 25.48965 118.00406 37165 ft 562 kts 59°
2026-05-05 06:56 25.56239 118.15549 37046 ft 563 kts 59°
2026-05-05 06:56 25.63557 118.30838 36924 ft 554 kts 59°
2026-05-05 06:56 25.70697 118.45800 37045 ft 545 kts 59°
2026-05-05 06:57 25.77825 118.60772 37146 ft 556 kts 60°
2026-05-05 06:57 25.85107 118.76135 37045 ft 567 kts 60°
2026-05-05 06:57 25.92439 118.91658 37058 ft 564 kts 60°
2026-05-05 06:57 25.99638 119.06955 37076 ft 553 kts 60°
2026-05-05 06:58 26.06743 119.22096 37135 ft 553 kts 60°
2026-05-05 06:58 26.13897 119.37396 37130 ft 564 kts 60°
2026-05-05 06:58 26.21650 119.52692 37046 ft 565 kts 47°
2026-05-05 06:58 26.33374 119.63635 37117 ft 539 kts 27°
2026-05-05 06:59 26.45834 119.72868 37129 ft 537 kts 28°
2026-05-05 06:59 26.70772 119.91884 37169 ft 550 kts 28°
2026-05-05 06:59 26.83545 120.01655 37022 ft 558 kts 28°
2026-05-05 07:00 26.96231 120.11403 37032 ft 548 kts 28°
2026-05-05 07:00 27.20993 120.30474 37150 ft 548 kts 28°
2026-05-05 07:00 27.33755 120.40345 37054 ft 562 kts 28°
2026-05-05 07:01 27.46612 120.50333 37083 ft 561 kts 28°
2026-05-05 07:01 27.59341 120.60246 37098 ft 550 kts 28°
2026-05-05 07:01 27.71896 120.70039 37060 ft 547 kts 28°
2026-05-05 07:02 27.92774 120.86395 37127 ft 557 kts 28°
2026-05-05 07:02 28.19067 121.05656 37067 ft 561 kts 26°
2026-05-05 07:02 28.32029 121.15218 37031 ft 550 kts 26°
2026-05-05 07:03 28.44828 121.24664 37020 ft 548 kts 26°
2026-05-05 07:03 28.57705 121.34192 37140 ft 556 kts 26°
2026-05-05 07:03 28.70624 121.43784 37084 ft 566 kts 27°
2026-05-05 07:03 28.83899 121.53685 36959 ft 558 kts 27°
2026-05-05 07:04 28.96576 121.63159 37054 ft 548 kts 27°
2026-05-05 07:04 29.22406 121.82533 37049 ft 565 kts 27°
2026-05-05 07:05 29.48622 122.02346 37013 ft 553 kts 27°
2026-05-05 07:05 29.74118 122.21714 37125 ft 553 kts 27°
2026-05-05 07:06 29.99116 122.43057 37100 ft 575 kts 43°
2026-05-05 07:06 30.10097 122.56418 37102 ft 564 kts 43°
2026-05-05 07:06 30.20908 122.69356 36997 ft 556 kts 42°
2026-05-05 07:06 30.31725 122.82310 37098 ft 562 kts 43°
2026-05-05 07:07 30.42652 122.95465 37134 ft 572 kts 43°
2026-05-05 07:07 30.64474 123.21882 37005 ft 560 kts 43°
2026-05-05 07:08 30.85848 123.47919 37079 ft 558 kts 43°
2026-05-05 07:08 31.07468 123.74449 37029 ft 561 kts 43°
2026-05-05 07:09 31.25172 123.96312 36978 ft 549 kts 43°
2026-05-05 07:09 31.32304 124.05147 37132 ft 564 kts 44°
2026-05-05 07:10 31.50415 124.27706 37036 ft 566 kts 44°
2026-05-05 07:10 31.55751 124.34381 37094 ft 557 kts 44°
2026-05-05 07:11 31.71081 124.53604 37150 ft 558 kts 44°
2026-05-05 07:11 31.76390 124.60286 37103 ft 559 kts 44°
2026-05-05 07:12 31.81698 124.66981 37114 ft 560 kts 44°
2026-05-05 07:12 31.86991 124.73669 37086 ft 559 kts 44°
2026-05-05 07:13 32.03165 124.94178 37136 ft 557 kts 44°
2026-05-05 07:13 32.24063 125.20847 37110 ft 556 kts 44°
2026-05-05 07:14 32.44973 125.47728 37134 ft 554 kts 44°
2026-05-05 07:14 32.65772 125.74664 37143 ft 552 kts 45°
2026-05-05 07:15 32.86463 126.01660 37132 ft 551 kts 45°
2026-05-05 07:15 33.07006 126.28664 37078 ft 549 kts 45°
2026-05-05 07:16 33.27382 126.55651 37166 ft 546 kts 45°
2026-05-05 07:16 33.37274 126.69518 37076 ft 551 kts 57°
2026-05-05 07:16 33.42338 126.86671 37090 ft 547 kts 80°
2026-05-05 07:17 33.48953 127.22039 37110 ft 549 kts 79°
2026-05-05 07:17 33.55727 127.57836 37107 ft 551 kts 79°
2026-05-05 07:18 33.62411 127.93800 37231 ft 553 kts 79°
2026-05-05 07:18 33.68751 128.28497 37111 ft 559 kts 80°
2026-05-05 07:19 33.70401 128.37619 37132 ft 558 kts 80°
2026-05-05 07:19 33.72032 128.46683 37153 ft 559 kts 80°
2026-05-05 07:19 33.72855 128.51271 37270 ft 563 kts 80°
2026-05-05 07:20 33.73687 128.55921 37808 ft 559 kts 80°
2026-05-05 07:20 33.74501 128.60472 38300 ft 556 kts 80°
2026-05-05 07:20 33.75301 128.64962 38628 ft 556 kts 80°
2026-05-05 07:20 33.76112 128.69523 38825 ft 559 kts 80°
2026-05-05 07:21 33.76924 128.74102 39002 ft 561 kts 80°
2026-05-05 07:21 33.78549 128.83301 39115 ft 563 kts 80°
2026-05-05 07:22 33.80169 128.92499 39127 ft 560 kts 80°
2026-05-05 07:22 33.81771 129.01639 39133 ft 558 kts 80°
2026-05-05 07:23 33.86129 129.26737 39129 ft 556 kts 80°
2026-05-05 07:23 33.92369 129.63238 39137 ft 557 kts 81°
2026-05-05 07:24 33.98527 129.99950 39159 ft 561 kts 81°
2026-05-05 07:24 34.04613 130.36932 39234 ft 564 kts 81°
2026-05-05 07:25 34.10645 130.74330 39176 ft 571 kts 81°
2026-05-05 07:25 34.12362 130.85118 39127 ft 571 kts 81°
2026-05-05 07:26 34.13852 130.94526 39121 ft 570 kts 81°
2026-05-05 07:26 34.15331 131.03916 39125 ft 569 kts 82°
2026-05-05 07:27 34.16801 131.13302 39125 ft 568 kts 82°
2026-05-05 07:27 34.18265 131.22688 39134 ft 567 kts 82°
2026-05-05 07:28 34.19707 131.31982 39127 ft 567 kts 82°
2026-05-05 07:28 34.21152 131.41355 39122 ft 567 kts 82°
2026-05-05 07:29 34.22592 131.50738 39139 ft 568 kts 82°
2026-05-05 07:29 34.24551 131.63587 39146 ft 567 kts 82°
2026-05-05 07:30 34.30205 132.01206 39177 ft 571 kts 82°
2026-05-05 07:30 34.38529 132.58150 39158 ft 573 kts 82°
2026-05-05 07:31 34.43962 132.96225 39184 ft 573 kts 82°
2026-05-05 07:31 34.50051 133.34295 39127 ft 575 kts 81°
2026-05-05 07:32 34.55969 133.72499 39066 ft 578 kts 81°
2026-05-05 07:32 34.61789 134.10853 39197 ft 576 kts 81°
2026-05-05 07:33 34.67460 134.49067 39146 ft 580 kts 82°
2026-05-05 07:33 34.73100 134.87943 39160 ft 580 kts 82°
2026-05-05 07:34 34.78541 135.26343 39131 ft 581 kts 82°
2026-05-05 07:34 34.85176 135.64823 39152 ft 581 kts 77°
2026-05-05 07:35 34.92460 136.03175 39100 ft 582 kts 78°
2026-05-05 07:35 34.98621 136.36261 39177 ft 581 kts 78°
2026-05-05 07:36 35.00397 136.45894 39148 ft 581 kts 78°
2026-05-05 07:36 35.02150 136.55453 39195 ft 579 kts 78°
2026-05-05 07:37 35.03900 136.65053 39198 ft 580 kts 78°
2026-05-05 07:37 35.05649 136.74684 39186 ft 582 kts 78°
2026-05-05 07:38 35.07384 136.84277 39196 ft 583 kts 79°
2026-05-05 07:38 35.09125 136.93953 39180 ft 583 kts 79°
2026-05-05 07:39 35.10860 137.03643 39187 ft 584 kts 79°
2026-05-05 07:39 35.12587 137.13338 39148 ft 584 kts 79°
2026-05-05 07:40 35.14304 137.23020 39188 ft 583 kts 79°
2026-05-05 07:40 35.16012 137.32698 39157 ft 580 kts 79°
2026-05-05 07:41 35.16855 137.37490 38914 ft 572 kts 79°
2026-05-05 07:41 35.17688 137.42236 38303 ft 572 kts 79°
2026-05-05 07:41 35.18526 137.47029 37346 ft 578 kts 79°
2026-05-05 07:41 35.19368 137.51861 36397 ft 585 kts 79°
2026-05-05 07:42 35.20219 137.56758 35665 ft 588 kts 79°
2026-05-05 07:42 35.21065 137.61633 35118 ft 586 kts 79°
2026-05-05 07:42 35.21906 137.66489 34693 ft 581 kts 79°
2026-05-05 07:42 35.22737 137.71305 34253 ft 577 kts 80°
2026-05-05 07:43 35.23564 137.76097 33701 ft 574 kts 80°
2026-05-05 07:43 35.24375 137.80802 33247 ft 569 kts 80°
2026-05-05 07:43 35.25185 137.85515 32849 ft 562 kts 80°
2026-05-05 07:43 35.25985 137.90182 32472 ft 557 kts 80°
2026-05-05 07:44 35.26773 137.94804 31977 ft 554 kts 80°
2026-05-05 07:44 35.27555 137.99400 31554 ft 550 kts 80°
2026-05-05 07:44 35.28329 138.03961 31147 ft 545 kts 80°
2026-05-05 07:44 35.29094 138.08483 30777 ft 539 kts 80°
2026-05-05 07:45 35.29849 138.12950 30444 ft 533 kts 79°
2026-05-05 07:45 35.30598 138.17370 30146 ft 528 kts 80°
2026-05-05 07:45 35.31334 138.21749 29788 ft 524 kts 80°
2026-05-05 07:45 35.32064 138.26116 29370 ft 519 kts 80°
2026-05-05 07:46 35.32785 138.30437 28906 ft 515 kts 80°
2026-05-05 07:46 35.33498 138.34713 28543 ft 509 kts 80°
2026-05-05 07:46 35.33964 138.37508 28365 ft 503 kts 79°
2026-05-05 07:46 35.34883 138.43031 27916 ft 496 kts 79°
2026-05-05 07:47 35.35571 138.47172 27518 ft 492 kts 79°
2026-05-05 07:47 35.36248 138.51260 27179 ft 486 kts 79°
2026-05-05 07:47 35.36691 138.53943 26966 ft 482 kts 79°
2026-05-05 07:47 35.37351 138.57952 26592 ft 476 kts 79°
2026-05-05 07:48 35.38001 138.61896 26214 ft 471 kts 79°
2026-05-05 07:48 35.38648 138.65832 25835 ft 468 kts 79°
2026-05-05 07:48 35.39285 138.69723 25512 ft 463 kts 79°
2026-05-05 07:48 35.39914 138.73565 25214 ft 457 kts 79°
2026-05-05 07:49 35.40518 138.77269 24881 ft 451 kts 78°
2026-05-05 07:49 35.41125 138.80999 24561 ft 446 kts 78°
2026-05-05 07:49 35.41728 138.84711 24244 ft 441 kts 78°
2026-05-05 07:49 35.42322 138.88371 23926 ft 436 kts 78°
2026-05-05 07:50 35.42909 138.91997 23595 ft 431 kts 78°
2026-05-05 07:50 35.43489 138.95585 23209 ft 426 kts 78°
2026-05-05 07:50 35.44061 138.99133 22815 ft 422 kts 78°
2026-05-05 07:50 35.44627 139.02650 22436 ft 418 kts 78°
2026-05-05 07:51 35.45186 139.06128 22060 ft 414 kts 78°
2026-05-05 07:51 35.45745 139.09617 21682 ft 410 kts 78°
2026-05-05 07:51 35.46284 139.12990 21304 ft 406 kts 78°
2026-05-05 07:51 35.46829 139.16410 20944 ft 401 kts 77°
2026-05-05 07:52 35.47364 139.19756 20544 ft 397 kts 77°
2026-05-05 07:52 35.47886 139.23027 20163 ft 394 kts 77°
2026-05-05 07:52 35.48407 139.26310 19840 ft 388 kts 77°
2026-05-05 07:52 35.48909 139.29486 19214 ft 372 kts 77°
2026-05-05 07:53 35.49398 139.32580 18299 ft 366 kts 77°
2026-05-05 07:53 35.49887 139.35633 17193 ft 362 kts 75°
2026-05-05 07:53 35.50491 139.38631 16238 ft 368 kts 73°
2026-05-05 07:53 35.51169 139.41663 15806 ft 366 kts 72°
2026-05-05 07:54 35.51844 139.44659 15529 ft 360 kts 72°
2026-05-05 07:54 35.52510 139.47598 15235 ft 355 kts 72°
2026-05-05 07:54 35.53171 139.50499 14888 ft 352 kts 72°
2026-05-05 07:54 35.53830 139.53391 14469 ft 351 kts 72°
2026-05-05 07:55 35.54472 139.56219 14334 ft 332 kts 72°
2026-05-05 07:55 35.55071 139.58869 13917 ft 314 kts 72°
2026-05-05 07:55 35.55645 139.61424 13198 ft 308 kts 72°
2026-05-05 07:55 35.56203 139.63928 12404 ft 305 kts 72°
2026-05-05 07:56 35.56767 139.66449 11643 ft 302 kts 72°
2026-05-05 07:56 35.57322 139.68916 10908 ft 298 kts 72°
2026-05-05 07:56 35.57846 139.71370 10166 ft 297 kts 77°
2026-05-05 07:56 35.58155 139.73867 9417 ft 294 kts 81°
2026-05-05 07:57 35.58390 139.76305 8873 ft 284 kts 82°
2026-05-05 07:57 35.58613 139.78675 8292 ft 277 kts 82°
2026-05-05 07:57 35.58930 139.80998 7706 ft 269 kts 70°
2026-05-05 07:57 35.59672 139.83006 7190 ft 257 kts 51°
2026-05-05 07:58 35.60972 139.84486 6711 ft 255 kts 33°
2026-05-05 07:58 35.62412 139.85722 6494 ft 250 kts 32°
2026-05-05 07:58 35.63829 139.86932 6323 ft 247 kts 32°
2026-05-05 07:58 35.65245 139.88128 6170 ft 247 kts 32°
2026-05-05 07:59 35.66707 139.89239 5998 ft 248 kts 19°
2026-05-05 07:59 35.68396 139.89529 5850 ft 248 kts 347°
2026-05-05 07:59 35.70017 139.88869 5753 ft 245 kts 333°
2026-05-05 07:59 35.71580 139.88004 5644 ft 248 kts 333°
2026-05-05 08:00 35.73147 139.87104 5519 ft 248 kts 332°
2026-05-05 08:00 35.74706 139.86204 5376 ft 247 kts 333°
2026-05-05 08:00 35.76230 139.85301 5245 ft 244 kts 332°
2026-05-05 08:00 35.77754 139.84395 5131 ft 244 kts 332°
2026-05-05 08:01 35.79291 139.83487 5007 ft 246 kts 332°
2026-05-05 08:01 35.80829 139.82560 4897 ft 246 kts 332°
2026-05-05 08:01 35.82201 139.81383 4695 ft 238 kts 303°
2026-05-05 08:01 35.82707 139.79522 4624 ft 230 kts 263°
2026-05-05 08:02 35.82497 139.77573 4613 ft 232 kts 259°
2026-05-05 08:02 35.82349 139.75568 4552 ft 233 kts 260°
2026-05-05 08:02 35.81898 139.73748 4508 ft 223 kts 232°
2026-05-05 08:02 35.80789 139.72455 4516 ft 216 kts 213°
2026-05-05 08:03 35.79503 139.71496 4516 ft 215 kts 209°
2026-05-05 08:03 35.78212 139.70597 4279 ft 215 kts 208°
2026-05-05 08:03 35.76934 139.69707 4153 ft 207 kts 208°
2026-05-05 08:03 35.75700 139.68847 4047 ft 195 kts 207°
2026-05-05 08:04 35.74456 139.68444 3924 ft 184 kts 179°
2026-05-05 08:04 35.73162 139.68636 3844 ft 191 kts 173°
2026-05-05 08:04 35.71884 139.68907 3721 ft 181 kts 172°
2026-05-05 08:04 35.70679 139.69171 3562 ft 169 kts 173°
2026-05-05 08:05 35.69557 139.69452 3383 ft 164 kts 163°
2026-05-05 08:05 35.68566 139.70126 3169 ft 161 kts 153°
2026-05-05 08:05 35.67623 139.70809 2926 ft 151 kts 153°
2026-05-05 08:05 35.66757 139.71428 2716 ft 137 kts 155°
2026-05-05 08:06 35.65989 139.71979 2490 ft 117 kts 155°
2026-05-05 08:06 35.65283 139.72479 2347 ft 120 kts 155°
2026-05-05 08:06 35.64548 139.73002 2155 ft 124 kts 154°
2026-05-05 08:06 35.63824 139.73513 1981 ft 117 kts 155°
2026-05-05 08:07 35.63132 139.74004 1793 ft 116 kts 155°
2026-05-05 08:07 35.62428 139.74506 1627 ft 117 kts 156°
2026-05-05 08:07 35.61719 139.75012 1422 ft 121 kts 154°
2026-05-05 08:07 35.60984 139.75555 1198 ft 123 kts 154°
2026-05-05 08:08 35.60246 139.76076 1003 ft 123 kts 155°
2026-05-05 08:08 35.59509 139.76596 786 ft 121 kts 155°
2026-05-05 08:08 35.58792 139.77110 589 ft 118 kts 154°
2026-05-05 08:08 35.58090 139.77618 372 ft 118 kts 154°
2026-05-05 08:09 35.57365 139.78130 241 ft 122 kts 156°
2026-05-05 08:09 35.56605 139.78657 98 ft 128 kts 156°
2026-05-05 08:09 35.55866 139.79166 29 ft 111 kts 150°
2026-05-05 08:09 35.55356 139.79531 29 ft 58 kts 150°
2026-05-05 08:10 35.55113 139.79696 29 ft 32 kts 158°
2026-05-05 08:10 35.54949 139.79745 28 ft 14 kts 173°
2026-05-05 08:10 35.54855 139.79734 28 ft 11 kts 214°
2026-05-05 08:10 35.54836 139.79658 28 ft 10 kts 287°
2026-05-05 08:11 35.54885 139.79608 28 ft 8 kts 329°
2026-05-05 08:11 35.54937 139.79571 12 ft 9 kts 329°
2026-05-05 08:11 35.54993 139.79531 28 ft 7 kts 330°
2026-05-05 08:11 35.55042 139.79496 28 ft 9 kts 330°
2026-05-05 08:12 35.55096 139.79457 28 ft 10 kts 327°
2026-05-05 08:12 35.55118 139.79388 28 ft 10 kts 249°
2026-05-05 08:12 35.55083 139.79317 29 ft 9 kts 238°
2026-05-05 08:12 35.55054 139.79256 29 ft 7 kts 240°
2026-05-05 08:13 35.55035 139.79201 29 ft 7 kts 268°
2026-05-05 08:13 35.55034 139.79143 29 ft 3 kts 251°
2026-05-05 08:13 35.55023 139.79118 29 ft 4 kts 240°
2026-05-05 08:13 35.55008 139.79086 29 ft 5 kts 240°
2026-05-05 08:14 35.55001 139.79070 29 ft 1 kts 240°